Location: Newark
(13.6797°N, 8.5297°E)
Time: 02:57:05
(UTC+00:00)

Courier 1B - Visible Passes

Search period start: 23 January 2020 00:00
Search period end: 02 February 2020 00:00
Orbit: 962 x 1209 km, 28.3° (Epoch: 22 January)

Date Brightness Start Highest point End Pass type
(mag) Time Alt. Az. Time Alt. Az. Time Alt. Az.
23 Jan 9.2 03:25:19 26° NNE 03:25:19 26° NNE 03:29:28 10° NE visible
23 Jan 9.2 05:12:13 10° NW 05:18:25 26° N 05:24:48 10° ENE visible
24 Jan 10.2 02:34:58 12° NE 02:34:58 12° NE 02:35:26 10° NE visible
24 Jan 9.0 04:21:52 23° NNW 04:24:04 26° N 04:30:22 10° NE visible
25 Jan 9.2 03:31:29 24° NNE 03:31:29 24° NNE 03:36:02 10° NE visible
25 Jan 9.1 05:19:00 10° NW 05:25:30 29° N 05:32:08 10° ENE visible
26 Jan 10.1 02:41:06 12° NE 02:41:06 12° NE 02:41:49 10° NE visible
26 Jan 9.1 04:27:59 20° NNW 04:31:11 27° N 04:37:32 10° ENE visible
27 Jan 9.2 03:37:35 25° N 03:37:35 25° N 03:42:59 10° NE visible
27 Jan 8.9 05:25:29 10° NW 05:32:26 37° NNE 05:39:33 10° E visible
28 Jan 10.0 02:47:11 14° NE 02:47:11 14° NE 02:48:32 10° NE visible
28 Jan 9.0 04:34:05 19° NW 04:38:12 31° NNE 04:44:57 10° ENE visible
28 Jan 9.9 20:01:09 10° S 20:01:28 11° S 20:01:28 11° S visible
29 Jan 9.0 03:43:41 28° N 03:43:57 28° N 03:50:18 10° ENE visible
29 Jan 8.5 05:31:49 10° NW 05:39:10 52° NNE 05:46:46 10° E visible
29 Jan 9.6 19:09:48 10° SSE 19:11:09 11° SSE 19:11:09 11° SSE visible
30 Jan 9.8 02:53:18 18° NE 02:53:18 18° NE 02:55:40 10° ENE visible
30 Jan 8.6 04:40:12 20° NW 04:45:03 42° NNE 04:52:18 10° E visible
30 Jan 9.5 20:05:52 10° SSW 20:07:46 18° SSW 20:07:46 18° SSW visible
31 Jan 8.7 03:49:50 33° N 03:50:54 34° NNE 03:57:43 10° E visible
31 Jan 8.9 19:12:54 10° SSW 19:17:30 22° SSE 19:17:30 22° SSE visible
01 Feb 9.5 02:59:30 23° NE 02:59:30 23° NE 03:03:05 10° ENE visible
01 Feb 8.1 04:46:25 20° NW 04:51:42 62° NNE 04:59:22 10° ESE visible
01 Feb 9.3 18:20:21 10° S 18:24:04 16° SSE 18:27:17 11° ESE visible
01 Feb 9.2 20:11:37 10° SW 20:14:11 25° SW 20:14:11 25° SW visible
